星链-4752 (STARLINK-4752 )

导读 | 豆包AI

STARLINK-4752是美国太空探索技术公司SpaceX星链星座的卫星,于2022年9月19日发射升空,属于星链互联网星座的组网卫星之一,主要为全球提供低延迟、高速率的宽带互联网覆盖服务。星链作为低轨巨型星座,该卫星承担着增强全球网络覆盖的任务,是SpaceX大规模卫星互联网部署的重要组成部分,目前在轨运行服务。

Basic Information
目录编号:
53821
目录名称:
STARLINK-4752
国际标识:
2022-114D
轨道中心:
EARTH
卫星名称:
星链-4752
卫星全名:
星链-4752 (STARLINK-4752 )
卫星状态:
已陨落 最后检测时间 2025-08-18
发射日期:
2022-09-19 UTC
国别 :
美国 (US)
星等 :
--
Orbit Information
数据来源 国际轨道数据
星历时间: 2025-08-18T06:05:34+0800
轨道信息已过期255天
半长轴: 6572.825km
偏心率: 0.0008143
轨道倾角: 53.207°
近地点辐角 305.050°
升交点赤经 43.389°
平近点角 208.285°
近地点: 189.337km
远地点: 200.043km
周期: 88.387分钟
每日圈数: 16.292011
Detailed Information
固有亮度:
5
最大亮度:
2.5
卫星平台:
Starlink v1.5
覆盖范围:
全球
运营商:
太空探索技术公司
运营商所在国:
美国
制造商(研发单位):
太空探索技术公司
制造商所在国:
美国
使用方式:
暂无
Satellite Introduction
星链(Starlink)计划是由太空探索技术公司(SpaceX)提出的一个巨型低轨卫星互联网星座项目,计划在2019年至2024年间在太空搭建由约1.2万颗卫星组成的“星链”网络,其中1584颗将部署在地球上空550千米处的近地轨道,并从2020年开始工作。该卫星仍在工作。